Regional Weather Roundup
Issued by NWS Northern Indiana

Home | Current Version | Previous Version | Text Only | Print | Product List | Glossary On
Versions: 1 2 3 4 5 6 7 8 9 10 11 12 13 14 15 16 17 18 19 20 21 22 23 24 25 26 27 28 29 30 31 32 33 34 35 36 37 38 39 40 41 42 43 44 45 46 47 48 49 50
000
ASUS43 KIWX 212210
RWRIWX

KIWX WEATHER ROUNDUP
NATIONAL WEATHER SERVICE NORTHERN INDIANA
500 PM EST TUE FEB 21 2017

NOTE: "FAIR" INDICATES FEW OR NO CLOUDS BELOW 12,000 FEET WITH NO
SIGNIFICANT WEATHER AND/OR OBSTRUCTIONS TO VISIBILITY.

* THESE STATIONS ARE NOT UNDER NWS QUALITY CONTROL. THEY ALSO MAY NOT
  REPORT WEATHER SUCH AS PRECIPITATION OR FOG.

INZ001>027-212300-
NORTHERN INDIANA

CITY           SKY/WX    TMP DP  RH WIND       PRES   REMARKS
GARY*          PTSUNNY   66  54  63 SW7       29.91R
VALPARAISO     CLOUDY    65  54  67 SW6       29.92S
MICHIGAN CITY* CLOUDY    64  52  63 SW6       29.92S
LAPORTE*       MOSUNNY   63  53  72 SW7       29.93R
KNOX*          CLOUDY    63  32  31 W3        29.92S
SOUTH BEND     PTSUNNY   62  53  72 S7        29.94R
ELKHART*       PTSUNNY   63  50  63 SW5       29.93R
GOSHEN         PTSUNNY   61  50  67 S7        29.93S
MONTICELLO*    CLOUDY    61  51  69 CALM      29.91F
LOGANSPORT*    CLOUDY    59  52  77 SE7       29.92F
ROCHESTER*     PTSUNNY   63  52  67 CALM      29.93F
WARSAW*        CLOUDY    59  50  72 CALM      29.94S
ANGOLA*        CLOUDY    57  48  72 S5        29.94S
FORT WAYNE     CLOUDY    60  49  66 CALM      29.94S
HUNTINGTON*    CLOUDY    58  48  69 CALM      29.93S
PERU/GRISSOM   CLOUDY    59  54  84 SE3       29.91S
MARION*        CLOUDY    60  49  68 S3        29.94S

$$
INZ028>050-212300-
CENTRAL INDIANA

CITY           SKY/WX    TMP DP  RH WIND       PRES   REMARKS
LAFAYETTE      CLOUDY    61  51  70 SE5       29.92R
KOKOMO*        CLOUDY    59  51  75 CALM      29.93S
MUNCIE*        CLOUDY    63  47  55 S7        29.94S
INDIANAPOLIS   CLOUDY    63  48  58 S7        29.93S

$$
MIZ043>046-050>051-056>058-064>065-071>073-077>080-212300-
SOUTHWEST LOWER MICHIGAN

CITY           SKY/WX    TMP DP  RH WIND       PRES   REMARKS
BATTLE CREEK   PTSUNNY   61  53  75 SW6       29.92S
BENTON HARBOR  MOSUNNY   58  52  80 CALM      29.92R
COLDWATER*     CLOUDY    60  51  73 S5        29.93S
HILLSDALE*     CLOUDY    55  50  82 S5        29.93R
HOLLAND        PTSUNNY   54  48  80 W5        29.93S
GRAND RAPIDS   PTSUNNY   55  49  80 SW13      29.91S
KALAMAZOO      CLOUDY    62  51  67 NW8       29.92S
STURGIS*       PTSUNNY   59  53  78 SW5       29.93R
THREE RIVERS*  FAIR      62  52  71 SW5       29.92S

$$
OHZ001>008-015>018-024>025-212300-
NORTHWEST OHIO

CITY           SKY/WX    TMP DP  RH WIND       PRES   REMARKS
WAUSEON*       CLOUDY    57  52  82 SW5       29.94S
DEFIANCE       CLOUDY    57  49  74 CALM      29.94S
FINDLAY        CLOUDY    61  48  62 S7        29.94S
TOLEDO EXPRESS CLOUDY    56  51  84 W5        29.94R
TOLEDO METCALF CLOUDY    58  51  78 SW6       29.95R
LIMA           CLOUDY    61  49  64 S8        29.95R

$$
AND FOR LAKE MICHIGAN COASTAL AND OPEN LAKE BUOY OBSERVATIONS

STATION/POSITION TEMP    WIND        PRES    VSBY  WAVE
                 AIR SEA DIR/SP/G                  HT/PER
                 (F)     (DEG/KT/KT) (MB)    (MI)  (FT/S)
CALUMET HARBOR    54      50/  1/  3 1012.2R
MICHIGAN CITY     50      30/  5/  5   N/A
BURNS HARBOR      48      70/  5/  5 1013.2S

$$
&&



USA.gov is the U.S. government's official web portal to all federal, state and local government web resources and services.